Hourly Data Report for July 07, 2020

OTTAWA INTL A
ONTARIO
Current Station Operator: NAVCAN

45°19'00.000" N
75°40'00.000" W
114.90 m
6106001
71628
YOW

Download Data

Hourly Data (July 2020)
Hourly Data Report for July 7, 2020
TIME Temp Definition
°C
Dew Point Definition
°C
Rel Hum Definition
%
Wind Dir Definition
10's deg

Wind Spd Definition
km/h
Visibility Definition
km
Stn Press Definition
kPa
Hmdx Definition


Wind Chill Definition


Weather Definition


00:00 19.9 10.0 53 11 13 24.1 100.29     LegendNANA
01:00 19.6 9.9 53 13 9 24.1 100.28     Mostly Cloudy
02:00 18.5 10.1 58 15 10 24.1 100.27     LegendNANA
03:00 17.3 11.0 66 4 9 24.1 100.25     LegendNANA
04:00 16.4 10.8 69 5 13 24.1 100.27     Mainly Clear
05:00 16.8 10.8 67 6 10 24.1 100.28     LegendNANA
06:00 17.7 10.9 64 9 11 24.1 100.28     LegendNANA
07:00 20.5 12.9 61 11 10 24.1 100.27     Mostly Cloudy
08:00 23.6 15.4 60 16 10 24.1 100.25 28   LegendNANA
09:00 25.0 16.7 60 16 7 24.1 100.22 30   LegendNANA
10:00 27.2 17.6 55 18 5 24.1 100.19 33   Mainly Clear
11:00 29.0 18.6 53 21 7 24.1 100.13 35   LegendNANA
12:00 31.6 18.5 45 21 9 24.1 100.05 38   LegendNANA
13:00 31.8 17.5 42 18 7 24.1 100.02 37   Mainly Clear
14:00 33.8 17.9 38 19 13 24.1 99.96 40   LegendNANA
15:00 33.9 18.1 39 20 22 24.1 99.87 40   LegendNANA
16:00 32.7 17.3 39 21 21 24.1 99.81 38   Mostly Cloudy
17:00 32.4 17.1 40 21 25 24.1 99.78 38   LegendNANA
18:00 30.9 18.6 48 19 18 24.1 99.76 37   LegendNANA
19:00 28.8 19.2 56 20 17 24.1 99.75 36   Mostly Cloudy
20:00 27.5 19.8 62 17 10 24.1 99.79 35   LegendNANA
21:00 26.0 20.1 70 17 10 24.1 99.78 34   LegendNANA
22:00 25.5 19.8 70 17 10 24.1 99.78 33   Mostly Cloudy
23:00 26.0 19.0 65 20 16 24.1 99.77 33   LegendNANA

Notes on Data Quality.

Legend

  • E = Estimated
  • M = Missing
  • NA = Not Available*
  • [empty] = Indicates an unobserved value
Date modified: